COSMOS 2251 DEB, 40793

Orbit data source: Space-Track

COSMOS 2251 DEB, 40793 is space debris in LEO originally from a launch on Wed, 16 Jun 1993 UTC launched from the Plesetsk Missile And Space Complex (PKMTR). The debris from Iridium 33, an American commercial communications satellite, has been tracked extensively since its accidental collision with the defunct Russian satellite Cosmos 2251 in 2009. This event, occurring at high speed in low Earth orbit (LEO), generated thousands of pieces of space debris, significantly increasing the risk of further collisions. The Iridium 33 debris cloud has impacted space traffic management and orbital debris mitigation strategies, making it a subject of ongoing study in space situational awareness.

Loading next visibility...
Identifier
40793, 1993-036BVW
Orbit
LEO
Last TLE update
1 week ago
Origin
Manufacturer
Unknown
Mission
Spacecraft
Bus & Motor
Unknown
Mass
Unknown
Launch date (UTC)
1993-06-16 (32 years ago)
Launch vehicle
Unknown
Launch site
Plesetsk Missile And Space Complex (PKMTR)
Object type
Payload
Rocket body
Debris
Shape & HBR
Unknown
Radar Cross Section
Small (<0.1 m²)

Expand to show TLE details & history

TLE from 1 week ago
0 COSMOS 2251 DEB
1 40793U 93036BVW 25182.00236326  .00000643  00000-0  33665-3 0  9993
2 40793  73.9768  93.9568 0216462 285.7595  71.9765 14.05105207659311
Epoch: 2025-07-01T00:03Z
TLE epoch observation values (Epoch: 2025-07-01T00:03:24.185Z)
Latitude
-0°
Longitude
173.80196°
Altitude
833.253 km
Speed
7.46 km/s
True Right ascension
06h 15m 49s
True Declination
0° 00' 00"
Sunlit
Object was in daylight at epoch
Visualization orbit readout
Latitude
40.12473°
Longitude
-33.03024°
Altitude
987.33 km
Speed
7.308 km/s
Apparent Right ascension
13h 04m 02s
Apparent Declination
6° 31' 42"
Sunlit
Object is in daylight
Visualization observer readout
Local Sidereal Time
20:49:29
Azimuth
292.586° NW
Elevation
-15.393°
Doppler factor
1
Orbital elements
Apogee altitude
1,030.809 km
Perigee altitude
716.854 km
Semi-major axis
7,251.969 km
Eccentricity
0.02165
Inclination
73.9768°
RAAN
93.9568°
Arg. of periapsis
285.7595°
True anomaly
Unknown
Mean anomaly
71.9765°
Eccentric anomaly
Unknown
Mean motion
3.51447 °/min
Orbital period
102.43 mins
BSTAR
0.00033665
Loading maneuver chart data...
Loading SW <> Apogee altitude chart data...

COSMOS 2251 DEB Visibility forecast

Observer location: undefined°, undefined°

Span
Click to sort rows by Start time (UTC) header in descending order
Start Az.
Max El. time (UTC)
Max El. Az.
Max El.
End time (UTC)
End Az.
7 mins2025-07-08 16:43:43.937Z130.781° SE2025-07-08 16:46:43.937Z98.12° ESE18.653°2025-07-08 16:50:43.937Z55.298° ENE
10 mins2025-07-08 18:26:43.937Z215.955° SW2025-07-08 18:30:43.937Z285.687° WNW41.742°2025-07-08 18:36:43.937Z12.082° NNE
10 mins2025-07-09 03:25:43.937Z358.36° N2025-07-09 03:30:43.937Z67.477° ENE34.38°2025-07-09 03:35:43.937Z132.016° SE
9 mins2025-07-09 05:10:43.937Z312.614° NW2025-07-09 05:14:43.937Z263.513° W26.595°2025-07-09 05:19:43.937Z205.537° SW
|